Weather History for Altus AFB, OK

Change the Weather History Date:

Monday, November 26, 2012

  Actual Average Record
Temperature  
Mean Temperature 48 °F -  
Max Temperature 58 °F 55 °F 73 °F (2003)
Min Temperature 37 °F 34 °F 19 °F (2010)
Degree Days  
Heating Degree Days 16    
Moisture  
Dew Point 30 °F    
Average Humidity 54    
Maximum Humidity 71    
Minimum Humidity 36    
Precipitation  
Precipitation 0.00 in - - ()
Sea Level Pressure  
Sea Level Pressure 30.09 in    
Wind  
Wind Speed 16 mph (NNE)    
Max Wind Speed 28 mph    
Max Gust Speed 33 mph    
Visibility 10 miles    
Events      
Averages and records for this station are not official NWS values.
T = Trace of Precipitation, MM = Missing Value Source: NWS Daily Summary

Daily Weather History Graph

Daily Weather History Graph

Search for Another Location

Airport:

Trip Planner

Search our weather history database for the weather conditions in past years. The results will help you decide how hot, cold, wet, or windy it might be!

Date:

Astronomy

Nov. 26, 2012 Rise Set
Actual Time 7:21 AM CST 5:27 PM CST
Civil Twilight 6:54 AM CST 5:54 PM CST
Nautical Twilight 6:23 AM CST 6:25 PM CST
Astronomical Twilight 5:53 AM CST 6:55 PM CST
Moon 4:18 PM CST (11/26) 5:36 AM CST (11/26)
Length of Visible Light 11h 00m
Length of Day
10h 05m
Waxing Gibbous, 97% of the Moon is Illuminated
Nov 26
Waxing Gibbous
Nov 28
Full
Dec 6
Last Quarter
Dec 13
New
Dec 19
First Quarter

Hourly Weather History & Observations

Time (CST) Temp. Windchill Dew Point Humidity Pressure Visibility Wind Dir Wind Speed Gust Speed Precip Events Conditions
12:55 AM 45.3 °F 40.1 °F 34.9 °F 67% 29.82 in 10.0 mi NE 10.4 mph - N/A   Clear
1:55 AM 44.8 °F 38.7 °F 34.7 °F 68% 29.81 in 10.0 mi NE 12.7 mph - N/A   Clear
2:55 AM 43.7 °F 37.7 °F 34.0 °F 69% 29.80 in 10.0 mi NE 11.5 mph - N/A   Clear
3:55 AM 42.8 °F 35.8 °F 33.8 °F 70% 29.81 in 10.0 mi NE 13.8 mph - N/A   Clear
4:55 AM 43.7 °F 36.3 °F 33.3 °F 67% 29.82 in 10.0 mi NNE 16.1 mph - N/A   Clear
5:55 AM 43.2 °F 37.0 °F 33.4 °F 69% 29.87 in 10.0 mi North 11.5 mph - N/A   Clear
6:55 AM 41.5 °F 33.8 °F 32.9 °F 71% 29.91 in 10.0 mi North 15.0 mph - N/A   Clear
7:55 AM 41.2 °F 32.4 °F 31.8 °F 69% 29.96 in 10.0 mi North 18.4 mph - N/A   Clear
8:55 AM 43.5 °F 35.0 °F 31.1 °F 62% 30.02 in 10.0 mi North 20.7 mph 27.6 mph N/A   Clear
9:55 AM 46.8 °F - 32.5 °F 58% 30.04 in 10.0 mi NNE 20.7 mph 28.8 mph N/A   Clear
10:55 AM 50.2 °F - 33.6 °F 53% 30.06 in 10.0 mi NNE 24.2 mph 32.2 mph N/A   Clear
11:55 AM 52.9 °F - 33.3 °F 47% 30.08 in 10.0 mi North 21.9 mph 27.6 mph N/A   Clear
12:55 PM 56.1 °F - 32.7 °F 41% 30.09 in 10.0 mi North 21.9 mph 28.8 mph N/A   Clear
1:55 PM 58.1 °F - 31.5 °F 36% 30.10 in 10.0 mi North 27.6 mph 33.4 mph N/A   Clear
2:55 PM 56.5 °F - 30.0 °F 36% 30.13 in 10.0 mi North 23.0 mph 31.1 mph N/A   Clear
3:55 PM 54.9 °F - 29.3 °F 38% 30.17 in 10.0 mi NNE 26.5 mph 33.4 mph N/A   Clear
4:55 PM 52.0 °F - 28.8 °F 41% 30.35 in 10.0 mi NNE 20.7 mph 29.9 mph N/A   Clear
5:55 PM 48.4 °F - 28.6 °F 46% 30.25 in 10.0 mi NNE 12.7 mph - N/A   Clear
6:55 PM 45.9 °F 40.4 °F 24.8 °F 44% 30.30 in 10.0 mi NNE 11.5 mph - N/A   Clear
7:55 PM 43.9 °F 37.2 °F 21.0 °F 40% 30.34 in 10.0 mi NNE 13.8 mph - N/A   Clear
8:55 PM 42.4 °F 34.1 °F 21.4 °F 43% 30.35 in 10.0 mi North 18.4 mph - N/A   Clear
9:55 PM 41.0 °F 32.5 °F 23.0 °F 49% 30.37 in 10.0 mi North 17.3 mph - N/A   Clear
10:55 PM 39.4 °F 31.1 °F 22.8 °F 52% 30.40 in 10.0 mi NNE 15.0 mph 25.3 mph N/A   Clear
11:55 PM 37.8 °F 28.6 °F 23.2 °F 56% 30.39 in 10.0 mi NNE 16.1 mph - N/A   Clear